STARLINK-31875, 59674

Orbit data source: Space-Track

STARLINK-31875, 59674 is a payload satellite owned by SpaceX/Seattle (US) in LEO that was launched on Mon, 06 May 2024 UTC via an FALCON 9 launch vehicle from the Air Force Eastern Test Range (AFETR). Payload-class satellites include a variety of spacecraft equipped with specific instruments for various scientific and technological missions. These include communications satellites like Starlink; space stations such as the ISS; scientific satellites like the Hubble; Earth observation satellites from companies like Planet Labs, Umbra, and HawkEye 360; GPS; miniature CubeSats for education and research; and military/defense satellites.

Loading next visibility...
Identifier
59674, 2024-084W
Orbit
LEO
Country
Flag of USUS
Related business
Manufacturer
SpaceX/Seattle
Mission
Operational Commercial Communications
Bus & Motor
STARLINK V2M, Unknown motor
Mass
730 kg wet, ~700 kg dry
Launch date (UTC)
2024-05-06 (2 years ago)
Launch vehicle
FALCON 9
Launch site
Air Force Eastern Test Range (AFETR)
Object type
Payload
Rocket body
Debris
Shape & HBR
Box + 2 Pan, 17.7 m
Radar Cross Section
33.884 m², Large (>1 m²)

Expand to show TLE details & history
Last TLE update: 6 hours ago

TLE from 6 hours ago
0 STARLINK-31875
1 59674U 24084W   26073.52297854  .00001129  00000-0  50550-4 0  9991
2 59674  43.0028  10.9256 0000803 267.1374  92.9386 15.27582304105150
Epoch: 2026-03-14T12:33Z
TLE epoch observation values (Epoch: 2026-03-14T12:33:05.345Z)
Latitude
-0.00002°
Longitude
10.51037°
Altitude
482.846 km
Speed
7.626 km/s
True Right ascension
00h 43m 42s
True Declination
0° 00' 00"
Sunlit
Object was in daylight at epoch
Visualization orbit readout
Latitude
Unknown
Longitude
Unknown
Altitude
Unknown
Speed
Unknown
Apparent Right ascension
Unknown
Apparent Declination
Unknown
Sunlit
N/A
Visualization observer readout
Local Sidereal Time
22:40:21
Azimuth
Unknown
Elevation
Unknown
Doppler factor
Unknown
Orbital elements
Apogee altitude
485.538 km
Perigee altitude
484.436 km
Semi-major axis
6,863.124 km
Eccentricity
0.00008
Inclination
43.0028°
RAAN
10.9256°
Arg. of periapsis
267.1374°
True anomaly
92.94779°
Mean anomaly
92.9386°
Eccentric anomaly
92.94319°
Mean motion
3.81734 °/min
Orbital period
94.31 mins
BSTAR
0.00005055
Loading maneuver chart data...
Computing Atmospheric mass density...
Loading historical data...
Loading historical data...
Loading historical data...
Loading historical data...
Loading historical data...
Loading historical data...
Loading historical data...

Documentation

Showing up to 5 results
|